Location: Alafon
(8.4500°N, 4.2333°E)
Time: 17:26:54
(UTC+00:00)

Transit 2A - Pass Details

Date: 05 August 2021
Orbit: 595 x 964 km, 66.7° (Epoch: 18 September)

Event Time Altitude Azimuth Distance (km) Brightness Sun altitude
Rises 13:32:25 0° 17° (NNE) 3,485 9.4 63.5°
Reaches altitude 10° 13:37:18 10° 52° (NE) 2,623 8.7 62.3°
Maximum altitude 13:38:48 11° 67° (ENE) 2,577 8.6 62.0°
Drops below altitude 10° 13:40:19 10° 81° (E) 2,658 8.7 61.6°
Sets 13:45:22 0° 115° (ESE) 3,637 9.2 60.5°
